User: anonymous   Login
Location: *
(1.3500°S, 147.5000°W)
Time: 19:02:21
(UTC+00:00)
Language:

Cosmos 407 Rocket - Orbit

View from above orbital plane
View from above orbital plane
View from above satellite
View from above satellite

Ground track
Ground track

The orbit data is extracted from the following two-line orbital elements,

1  5175U 71035B   20185.52557128 -.00000033  00000-0 -19679-5 0  9990
2  5175  74.0494 322.2857 0030861 256.2194 103.5525 14.37979686574821
Epoch (UTC): 03 July 2020 12:36:49
Eccentricity: 0.0030861
inclination: 74.0494°
perigee height: 743 km
apogee height: 787 km
right ascension of ascending node: 322.2857°
argument of perigee: 256.2194°
revolutions per day: 14.37979686
mean anomaly at epoch: 103.5525°
orbit number at epoch: 57482

The dashed part of the orbit path shows where the satellite is in the earth's shadow,  

DLR